Newark, NJ

8:23 AM EDT on October 23, 2019 (GMT -0400)
Newark International

Weather History for KEWR - May, 2019

Change the Weather History Date:

Wednesday, May 1, 2019

  Actual Average Record
Temperature  
Mean Temperature 53 °F 58 °F  
Max Temperature 55 °F 68 °F 88 °F (2010)
Min Temperature 50 °F 49 °F 36 °F (1978)
Degree Days  
Heating Degree Days 12 8  
Month to date heating degree days 12 8  
Since 1 July heating degree days 4606 4728  
Cooling Degree Days 0 1  
Month to date cooling degree days 0 1  
Year to date cooling degree days 15 13  
Growing Degree Days 2 (Base 50)    
Moisture  
Dew Point 46 °F    
Average Humidity 78    
Maximum Humidity 100    
Minimum Humidity 55    
Precipitation  
Precipitation 0.01 in 0.12 in 2.17 in (1976)
Month to date precipitation 0.01 0.12  
Year to date precipitation 15.66 14.92  
Snow  
Snow 0.00 in 0.00 in 0.00 in (2002)
Month to date snowfall 0.0 0.0  
Since 1 July snowfall 22.0 28.5  
Snow Depth 0.00 in    
Sea Level Pressure  
Sea Level Pressure 30.36 in    
Wind  
Wind Speed 6 mph (ESE)    
Max Wind Speed 13 mph    
Max Gust Speed 21 mph    
Visibility 8 miles    
Events      
T = Trace of Precipitation, MM = Missing Value Source: NWS Daily Summary

Daily Weather History Graph

Daily Weather History Graph

Search for Another Location

Airport or City:

Astronomy

May. 01, 2019 Rise Set
Actual Time 5:55 AM EDT 7:52 PM EDT
Civil Twilight 5:26 AM EDT 8:22 PM EDT
Nautical Twilight 4:49 AM EDT 8:58 PM EDT
Astronomical Twilight 4:10 AM EDT 9:37 PM EDT
Moon 4:41 AM EDT (5/1) 4:36 PM EDT (5/1)
Length of Visible Light 14h 56m
Length of Day
13h 56m
Waning Crescent, 11% of the Moon is Illuminated
May 1
Waning Crescent
May 4
New
May 11
First Quarter
May 18
Full
May 26
Last Quarter

Hourly Weather History & Observations

Time (EDT) Temp. Dew Point Humidity Pressure Visibility Wind Dir Wind Speed Gust Speed Precip Events Conditions
12:51 AM 53.1 °F 48.0 °F 83% 30.41 in 10.0 mi South 3.5 mph - N/A   Overcast
1:51 AM 54.0 °F 48.0 °F 80% 30.41 in 10.0 mi Calm Calm - N/A   Overcast
2:51 AM 54.0 °F 46.9 °F 77% 30.40 in 10.0 mi East 4.6 mph - N/A   Overcast
3:51 AM 54.0 °F 46.0 °F 75% 30.39 in 10.0 mi Variable 4.6 mph - N/A   Overcast
4:51 AM 54.0 °F 46.9 °F 77% 30.40 in 10.0 mi SE 5.8 mph - N/A   Overcast
5:51 AM 53.1 °F 48.0 °F 83% 30.42 in 10.0 mi SSE 3.5 mph - N/A   Overcast
6:25 AM 53.1 °F 46.9 °F 80% 30.42 in 10.0 mi SE 6.9 mph - N/A   Overcast
6:51 AM 53.1 °F 46.9 °F 80% 30.44 in 10.0 mi SE 6.9 mph - N/A   Overcast
7:37 AM 53.1 °F 46.0 °F 77% 30.46 in 10.0 mi SE 6.9 mph - 0.00 in   Overcast
7:51 AM 53.1 °F 46.0 °F 77% 30.45 in 10.0 mi ESE 4.6 mph - 0.00 in   Overcast
8:51 AM 54.0 °F 45.0 °F 72% 30.43 in 10.0 mi East 6.9 mph - N/A   Overcast
9:51 AM 54.0 °F 43.0 °F 66% 30.44 in 10.0 mi SE 9.2 mph - N/A   Overcast
10:51 AM 54.0 °F 43.0 °F 66% 30.44 in 10.0 mi SE 8.1 mph - N/A   Overcast
11:51 AM 54.0 °F 42.1 °F 64% 30.43 in 10.0 mi ESE 10.4 mph - N/A   Overcast
12:51 PM 55.0 °F 42.1 °F 62% 30.40 in 10.0 mi ESE 10.4 mph 17.3 mph N/A   Overcast
1:32 PM 55.0 °F 39.9 °F 57% 30.40 in 10.0 mi ESE 10.4 mph - N/A   Overcast
1:51 PM 55.0 °F 39.9 °F 57% 30.39 in 10.0 mi SE 9.2 mph - N/A   Overcast
2:51 PM 54.0 °F 43.0 °F 66% 30.38 in 10.0 mi SE 9.2 mph - N/A   Overcast
3:51 PM 54.0 °F 44.1 °F 69% 30.35 in 10.0 mi ESE 8.1 mph - N/A   Overcast
4:51 PM 53.1 °F 45.0 °F 74% 30.32 in 10.0 mi ESE 8.1 mph - N/A   Overcast
5:44 PM 52.0 °F 46.0 °F 80% 30.32 in 10.0 mi East 8.1 mph - N/A   Overcast
5:51 PM 51.1 °F 46.0 °F 83% 30.31 in 8.0 mi ESE 9.2 mph - 0.00 in   Light Drizzle
6:19 PM 51.1 °F 46.9 °F 86% 30.30 in 3.0 mi East 5.8 mph - 0.00 in   Light Drizzle
6:41 PM 50.0 °F 48.0 °F 93% 30.29 in 1.5 mi East 9.2 mph - 0.00 in   Light Drizzle
6:51 PM 50.0 °F 48.0 °F 93% 30.30 in 1.5 mi East 6.9 mph - 0.00 in   Light Drizzle
7:05 PM 50.0 °F 48.9 °F 96% 30.29 in 1.5 mi East 5.8 mph - 0.00 in   Light Drizzle
7:51 PM 50.0 °F 48.9 °F 96% 30.27 in 1.5 mi East 5.8 mph - 0.00 in   Light Drizzle
8:51 PM 51.1 °F 50.0 °F 96% 30.26 in 1.5 mi East 5.8 mph - 0.00 in   Light Drizzle
9:51 PM 51.1 °F 50.0 °F 96% 30.24 in 1.5 mi ESE 5.8 mph - 0.01 in   Light Drizzle
10:51 PM 51.1 °F 50.0 °F 96% 30.22 in 1.5 mi East 3.5 mph - 0.00 in   Light Drizzle
11:51 PM 51.1 °F 51.1 °F 100% 30.19 in 1.5 mi Calm Calm - 0.00 in   Light Drizzle